Terminal Aerodrome Forecast
Issued by NWS

Home | Current Version | Previous Version | Text Only | Print | Product List | Glossary On
Versions: 1 2 3 4 5 6 7 8 9 10 11 12 13 14 15 16 17 18 19 20 21 22 23 24 25 26 27
164
FTUS44 KEWX 270805 AAA
TAFSSF
TAF AMD
KSSF 270805Z 2708/2806 11010KT P6SM BKN015 OVC025
     FM271000 14012KT P6SM OVC007
     FM271500 16013KT P6SM OVC015
     FM272000 15014KT P6SM BKN025 BKN040 PROB30 2722/2724 VRB25G35KT
      3SM TSRA OVC020CB=

USA.gov is the U.S. government's official web portal to all federal, state and local government web resources and services.